Effective Sunday, March 17, 2024, the National Weather Service National Data Buoy Center will discontinue its Dial-A-Buoy Interactive Voice Response system. For more information, see Service Change Notice 24-06 (PDF).

Station DBLN6 - Dunkirk, NY Image indicating link to RSS feed of recent meteorological observations for station DBLN6


Conditions at DBLN6 as of
(5:00 pm EST)
2200 GMT on 02/24/2024:
     

Click on the graph icon in the table below to see a time series plot of the last five days of that observation.

5-day plot - Wind Direction Wind Direction (WDIR): N ( 350 deg true )
5-day plot - Wind Speed Wind Speed (WSPD): 2 kts
5-day plot - Wind Gust Wind Gust (GST): 3 kts
5-day plot - Atmospheric Pressure Atmospheric Pressure (PRES):30.04 in
5-day plot - Pressure Tendency Pressure Tendency (PTDY):+0.04 in ( Rising )
5-day plot - Air Temperature Air Temperature (ATMP): 22.1 °F
5-day plot - Wind Speed at 10 Meters Wind Speed at 10 meters (WSPD10M): 2 kts
5-day plot - Wind Speed at 20 Meters Wind Speed at 20 meters (WSPD20M): 2 kts
5-day plot -  Wind Speed, Wind Gust and Atmospheric Pressure Combined plot of Wind Speed, Gust, and Air Pressure
Continuous Winds
TIME
(EST)
5-day plot - Wind Direction WDIR 5-day plot - Wind Speed WSPD
5:00 pmNNW ( 330 deg ) 3 kts
4:50 pmNNW ( 336 deg ) 6 kts
4:40 pmNNW ( 333 deg ) 8 kts
4:30 pmNNW ( 337 deg ) 6 kts
4:20 pmNNW ( 347 deg ) 6 kts
4:10 pmNNW ( 347 deg ) 6 kts
 
Peak gust during the measurement hour
TIME
(EST)
5-day plot - Gust Direction GDR 5-day plot - Gust Speed GST
4:10 pmNNW ( 340 deg ) 10 kts
Previous observations
TIME
(EST)
5-day plot - Wind Direction
WDIR
 
5-day plot - Wind Speed
WSPD
kts
5-day plot - Wind Gust
GST
kts
5-day plot - Wave Height
WVHT
ft
5-day plot - Dominant Wave Period
DPD
sec
5-day plot - Average Wave Period
APD
sec
5-day plot - Mean Wave Direction
MWD
 
5-day plot - Atmospheric Pressure
PRES
in
5-day plot - Pressure Tendency
PTDY
in
5-day plot - Air Temperature
ATMP
°F
5-day plot - Water Temperature
WTMP
°F
5-day plot - Dew Point
DEWP
°F
5-day plot - Salinity
SAL
psu
5-day plot - Visibility
VIS
nmi
5-day plot - Tide (above MLLW)
TIDE
ft
2024-02-24 04:00 pm N 7 9----30.03+0.04 21.4-----
2024-02-24 03:00 pm N 8 9----30.02+0.03 21.2-----
2024-02-24 02:00 pmNNE 9 10----30.01+0.03 20.5-----
2024-02-24 01:00 pmNNE 11 14----29.99+0.04 19.9-----
2024-02-24 12:00 pmNNE 11 13----29.99+0.05 19.6-----
2024-02-24 11:00 am NE 11 12----29.98+0.07 18.9-----
2024-02-24 10:00 amNNE 17 19----29.96+0.09 18.5-----
2024-02-24 09:00 amNNE 18 22----29.94+0.10 19.0-----
2024-02-24 08:00 amNNE 20 22----29.91+0.09 19.8-----
2024-02-24 07:00 amNNE 18 22----29.87+0.08 20.1-----
2024-02-24 06:00 am N 19 21----29.84+0.06 21.2-----
2024-02-24 05:00 amNNE 17 21----29.82+0.04 21.7-----
2024-02-24 04:00 amNNE 17 19----29.79+0.04 23.2-----
2024-02-24 03:00 amNNE 17 20----29.78+0.04 24.3-----
2024-02-24 02:00 am N 15 19----29.78+0.05 24.6-----
2024-02-24 01:00 am N 17 19----29.75+0.04 26.4-----
2024-02-24 12:00 amNNE 15 18----29.74+0.05 27.5-----
2024-02-23 11:00 pmNNE 14 15----29.72+0.06 30.0-----
2024-02-23 10:00 pm N 14 15----29.71+0.07 31.8-----
2024-02-23 09:00 pmNNE 15 17----29.69+0.10 32.5-----
2024-02-23 08:00 pmNNE 17 19----29.66+0.11 34.5-----
2024-02-23 07:00 pm W 10 10----29.64+0.11 35.2-----
2024-02-23 06:00 pmWSW 14 16----29.59+0.06 34.5-----